Regional Weather Roundup
Issued by NWS

Home | Current Version | Previous Version | Graphics & Text | Print | Product List | Glossary On
Versions: 1 2 3 4 5 6 7 8 9 10 11 12 13 14 15 16 17 18 19 20 21 22 23 24 25 26 27 28 29 30 31 32 33 34 35 36 37 38 39 40 41 42 43 44 45 46 47 48 49 50
204
ASUS45 KTFX 131310
RWRMT
MONTANA REGIONAL WEATHER ROUNDUP
NATIONAL WEATHER SERVICE GREAT FALLS MT
600 AM MST SAT FEB 13 2016

NOTE: "FAIR" INDICATES FEW OR NO CLOUDS BELOW 12000 FEET WITH NO
SIGNIFICANT WEATHER AND/OR OBSTRUCTIONS TO VISIBILITY.

MTZ001>007-043-131400-
WEST OF THE DIVIDE

CITY           SKY/WX    TMP DP  RH WIND       PRES   REMARKS
KALISPELL      MOCLDY    36  34  92 CALM      30.02R
MISSOULA       CLOUDY    36  36 100 CALM      30.07S
BUTTE          LGT RAIN  37  30  75 NW12      29.98S WCI  29
MULLAN PASS    HVY SNOW  27  26  96 VRB5      30.03R VSB 1/4
ANACONDA         N/A     34  32  93 N5        30.00S
DEER LODGE       N/A     36  34  93 NW22G28   29.99F WCI  24
HAMILTON         N/A     39  30  70 NW7       30.09R
PLAINS           N/A     40  36  86 W2        30.07R
$$

MTZ008-052>055-131400-
SOUTHWEST MONTANA

CITY           SKY/WX    TMP DP  RH WIND       PRES   REMARKS
BOZEMAN        CLOUDY    31  27  85 E3        29.97R
DILLON         CLOUDY    34  24  67 S15       29.97F WCI  24
ENNIS          CLOUDY    37  21  52 S17       30.05F WCI  28
TWIN BRIDGES     N/A     36  22  57 E9        29.96F WCI  29
$$

MTZ009-010-012-014-046-048-049-054-131400-
EAST SLOPES AND CENTRAL MONTANA

CITY           SKY/WX    TMP DP  RH WIND       PRES   REMARKS
CUT BANK       MOCLDY    39  27  62 W24G31    29.83R WCI  28
GREAT FALLS    CLOUDY    43  34  70 SW12      29.89R
MALMSTROM AFB  CLOUDY    45  37  73 SW22      29.89R
HELENA         PTCLDY    40  34  79 SW8       29.97S
CHOTEAU          N/A     43  28  56 SW15      29.85F
CONRAD           N/A     44  31  60 SW6       29.86F
$$

MTZ011-013-016-021-045-047-050-051-131400-
NORTH CENTRAL MONTANA

CITY           SKY/WX    TMP DP  RH WIND       PRES   REMARKS
HAVRE          FOG       23  23 100 CALM      29.86S VSB 1/2
LEWISTOWN      CLOUDY    39  30  70 S7        29.85F
N BAR RANCH      N/A     36  28  75 VRB3      29.88F
CHINOOK          N/A     25  25 100 E5        29.86F
$$

MTZ017>020-022>027-061-062-131400-
NORTHEAST MONTANA

CITY           SKY/WX    TMP DP  RH WIND       PRES   REMARKS
GLASGOW        CLOUDY    17  13  84 E16       29.90F WCI   2
JORDAN           N/A     29  26  89 E3        29.87F
SIDNEY         PTCLDY    18  12  79 S12       30.04F WCI   5
WOLF POINT     CLOUDY    16  11  80 E9        29.98F WCI   4
PLENTYWOOD       N/A     14  10  85 SE14      30.00F WCI  -1
POPLAR           N/A     16  12  86 E6        29.99F WCI   7
SCOBEY           N/A     14   3  61 SE15      29.93F WCI  -1
$$

MTZ028>42-056>058-131400-
SOUTHCENTRAL AND SOUTHEAST MONTANA

CITY           SKY/WX    TMP DP  RH WIND       PRES   REMARKS
BAKER          CLOUDY    22  18  85 SE17      29.98F WCI   8
BILLINGS       CLOUDY    39  29  67 SW16      29.89F WCI  30
LIVINGSTON     CLOUDY    47  22  37 SW29G36   29.90F
MILES CITY     CLOUDY    30  25  81 SE9       29.93F WCI  22
EKALAKA          N/A     24  20  85 E13       29.91F WCI  12
FORSYTH          N/A     28  27  93 E5        29.91F
LAUREL           N/A     37  27  68 SW3       29.89F
ROUNDUP          N/A     31  25  78 SW6       29.81S WCI  25
$$

REGIONAL REPORTS...DAKOTAS

CITY           SKY/WX    TMP DP  RH WIND       PRES   REMARKS
WILLISTON      CLOUDY    15   9  76 SE10      30.08F WCI   2
MINOT          CLOUDY    10  -1  61 SE18      30.23F WCI  -8
DICKINSON      LGT SNOW  11   6  81 SE17      30.06F WCI  -6
BEACH          CLOUDY    18  18 100 SE20      30.02F WCI   1
CROSBY         CLOUDY    14  10  85 SE16G22   30.10F WCI  -2
TIOGA          CLOUDY     9   9 100 SE20G25   30.14F FOG     WCI -11
WATFORD CITY   CLOUDY    14   9  79 SE12      30.08F WCI   0
BISMARCK       CLOUDY    10  -3  55 SE16      30.30F WCI  -7
GRAND FORKS    CLOUDY    -7 -14  71 SE7       30.57S WCI -21
FARGO          CLOUDY    -5 -11  75 SE7       30.58F WCI -19
BUFFALO SD       N/A     19  17  92 SE13      29.97F WCI   6
RAPID CITY     CLOUDY    29  27  92 SE8       30.03F WCI  21
$$

REGIONAL REPORTS...WYOMING/IDAHO/WASHINGTON

CITY           SKY/WX    TMP DP  RH WIND       PRES   REMARKS
GILLETTE       CLOUDY    32  28  85 SE14      29.94F WCI  22
SHERIDAN       CLOUDY    32  29  88 CALM      29.94R
BUFFALO WY     CLOUDY    45  25  45 W10       29.94S
CODY           CLOUDY    48  28  46 W12G30    29.94F
YELLOWSTONE LA   N/A     27  23  85 CALM      30.12F
IDAHO FALLS    CLOUDY    18  17  96 W5        30.16F
SALMON         CLOUDY    25  21  86 N7        30.06R WCI  17
BOISE          CLOUDY    33  32  96 CALM      30.25R FOG
SPOKANE        CLOUDY    40  37  89 SW17      30.12R
$$

REGIONAL REPORTS...ALBERTA

CITY           SKY/WX    TMP DP  RH WIND       PRES   REMARKS
EDMONTON       LGT SNOW  21  18  86 SW8       29.79F WCI  12
CALGARY        MOCLDY    41  21  45 W20G28    29.72R
LETHBRIDGE     MOCLDY    41  28  60 W20G28    29.77F
WATERTON GATE    N/A     36  27  69 SW28G37     N/A  WCI  23
CARDSTON         N/A     41  23  48 W20G33      N/A
MILK RIVER       N/A     37  32  81 N10         N/A  WCI  30
ONEFOUR          N/A     25  23  93 E3          N/A
$$

REGIONAL REPORTS...SASKATCHEWAN

CITY           SKY/WX    TMP DP  RH WIND       PRES   REMARKS
SWIFT CURRENT  LGT SNOW  19  19 100 S25G31    29.75F WCI   2
REGINA         FLURRIES  10   7  85 SE25G31   30.00F WCI -10
SASKATOON      CLOUDY    14  10  85 SE18      29.89F WCI  -3
CYPRESS HILLS    N/A     21  19  93 SW1         N/A
VAL MARIE        N/A     21  21 100 S12         N/A  WCI   9
ROCKGLEN         N/A     12  10  92 S18         N/A  WCI  -5
$$




USA.gov is the U.S. government's official web portal to all federal, state and local government web resources and services.